Location: Unspecified
(33.2407°S, 0.0000°E)
Time: 02:37:58
(UTC+00:00)

Envisat - Pass Details

Date: 25 May 2019
Orbit: 764 x 766 km, 98.1° (Epoch: 25 June)

Event Time Altitude Azimuth Distance (km) Brightness Sun altitude
Exits shadow 20:29:23 14° 283° (WNW) 2,061 5.7 -42.7°
Drops below altitude 10° 20:30:22 10° 292° (WNW) 2,312 6.0 -42.9°
Sets 20:33:14 0° 309° (NW) 3,229 6.7 -43.5°
